Location: Newark
(42.8481°N, 0.4872°E)
Time: 09:37:17
(UTC+00:00)

Vanguard 3 - Pass Details

Date: 30 October 2020
Orbit: 508 x 3262 km, 33.3° (Epoch: 27 November)

Event Time Altitude Azimuth Distance (km) Brightness Sun altitude
Rises 04:24:36 0° 226° (SW) 5,834 - -23.5°
Exits shadow 04:27:32 - 222° (SW) 5,259 10.9 -23.0°
Reaches altitude 10° 04:28:10 10° 221° (SW) 5,141 10.8 -22.8°
Maximum altitude 04:43:29 48° 153° (SSE) 3,771 10.6 -20.0°
Drops below altitude 10° 05:01:48 10° 88° (E) 6,082 12.9 -16.7°
Sets 05:06:28 0° 84° (E) 6,937 13.6 -15.8°
